Temp
7 8 8 8 8 8 9 9 9 10 10 10 10 10 10 9 9 9 9 9 9 10 10 11 10 10 11 11 11 11 11 11 11 11 11 11 12 12 12 12 12 12 12 12 12
7 7 8 8 8 8 8 8 9 10 10 10 10 10 10 10 10 9 9 9 9 9 10 10 10 10 10 10 11 11 11 11 11 11 11 11 11 12 12 12 12 12 12 12 11
7 7 7 8 8 8 8 8 8 9 10 10 10 10 10 10 9 9 9 9 9 9 9 9 10 10 10 10 10 11 11 11 11 11 11 11 11 11 12 12 12 12 12 12 12
6 7 7 7 7 8 8 8 8 8 9 9 10 9 10 9 10 9 9 9 9 9 9 9 9 10 9 9 10 10 11 11 12 11 11 11 12 11 11 12 12 12 12 12 12
6 6 6 6 7 7 8 8 8 8 8 9 9 10 9 9 10 10 9 9 9 9 9 9 9 10 10 9 9 10 10 10 10 11 11 11 12 11 12 12 11 11 12 12 12
5 5 5 6 6 7 7 7 7 7 8 9 9 9 9 9 9 10 10 10 10 10 9 9 9 9 9 9 9 10 10 11 11 11 11 11 12 12 12 12 12 11 11 12 12
5 5 5 5 5 6 6 7 7 7 7 8 8 9 9 9 9 9 10 10 9 9 10 9 9 9 9 10 10 10 10 11 10 11 11 11 11 11 11 12 12 12 12 12 12
4 4 4 4 5 5 6 6 6 7 7 7 8 8 9 9 9 9 9 10 9 9 9 9 9 9 9 10 10 10 10 11 10 10 10 10 10 10 11 11 11 12 12 12 13
3 3 3 3 4 5 5 5 5 6 6 7 7 8 9 9 9 9 9 10 9 9 8 9 8 9 9 9 9 10 9 9 10 10 9 9 9 10 11 11 11 11 12 12 13
2 3 3 3 3 4 4 4 5 5 6 6 6 7 8 9 9 10 9 9 9 9 8 9 8 9 9 9 9 9 8 9 9 10 9 9 10 11 11 11 12 12 12 13 13
2 2 2 2 3 3 4 4 4 4 5 6 6 7 7 8 9 9 9 9 9 9 9 9 8 10 10 9 8 8 8 8 10 10 10 11 10 11 12 12 12 12 12 12 13
2 2 3 2 2 2 3 3 3 3 4 5 6 6 6 6 7 8 8 8 8 9 9 8 9 10 9 9 8 8 9 9 10 10 9 11 12 12 13 12 12 12 12 12 12
0 1 2 2 2 2 2 1 2 2 2 5 5 5 7 6 6 7 7 8 8 8 9 9 9 9 10 9 8 9 9 9 9 9 9 10 12 12 12 12 11 12 12 12 12
-1 -0 0 0 1 1 1 2 1 1 1 4 5 7 6 7 7 7 6 7 7 8 8 7 8 8 8 9 8 9 9 9 9 8 8 9 10 12 12 11 11 11 12 12 12
-2 -1 -1 -1 -1 0 0 -0 -1 1 -2 3 3 4 5 6 8 9 7 6 6 7 7 8 9 9 9 10 9 9 9 9 9 8 8 8 8 12 12 11 11 12 12 12 12
-3 -2 -2 -2 -2 -1 -2 -4 -2 -1 -3 2 3 4 4 6 8 7 7 6 7 6 6 7 7 8 9 9 8 8 8 8 8 8 7 9 9 11 12 12 12 11 11 11 11
-3 -3 -3 -3 -3 -3 -3 -4 -3 -2 -1 1 4 3 4 4 5 6 7 7 6 5 6 7 8 8 7 7 7 8 7 7 7 7 8 9 8 11 12 12 11 11 11 11 11
-3 -3 -4 -4 -5 -4 -4 -4 -4 -1 -0 2 3 3 4 4 4 5 4 5 7 7 8 6 6 8 9 9 9 7 8 8 8 7 8 7 7 11 12 11 11 10 10 10 10
-4 -4 -4 -5 -5 -6 -5 -5 -3 -1 -1 1 1 2 2 3 4 5 5 5 6 7 6 7 6 8 9 10 9 8 7 9 8 7 6 8 9 10 12 11 11 11 10 10 10
-5 -5 -5 -6 -7 -7 -6 -4 -2 -1 -2 -2 -2 0 2 3 3 3 5 6 5 6 8 7 8 8 9 8 9 8 9 7 6 7 7 8 8 10 11 11 11 11 10 10 10
-7 -7 -7 -7 -7 -8 -7 -5 -3 -2 -1 -4 -3 -2 0 2 3 3 4 6 6 7 7 6 7 8 8 8 9 7 6 7 7 8 9 9 9 10 10 11 11 10 10 9 9
-9 -10 -9 -8 -8 -7 -7 -6 -4 -3 -2 -3 -4 -3 -2 0 -0 3 4 5 6 7 5 7 6 7 8 8 9 8 10 8 8 7 7 8 9 10 11 10 10 10 9 9 9
-10 -11 -11 -11 -10 -9 -8 -7 -6 -5 -5 -4 -5 -4 -3 -2 -1 -0 3 5 5 6 6 7 5 6 6 7 7 6 8 9 9 8 8 7 9 10 10 10 10 10 10 9 9
-11 -11 -11 -11 -11 -10 -10 -8 -7 -6 -5 -5 -5 -6 -4 -3 -2 -2 2 4 4 5 6 6 5 5 6 7 7 7 8 8 8 7 8 7 9 8 9 9 9 9 9 9 8
-11 -10 -10 -10 -10 -10 -11 -10 -8 -8 -7 -6 -6 -6 -5 -5 -4 -0 1 3 4 4 4 4 4 4 5 6 7 7 8 8 7 8 7 9 7 8 8 9 8 8 8 8 8
-11 -10 -10 -10 -10 -11 -10 -10 -9 -8 -8 -7 -7 -6 -6 -5 -4 -3 -1 0 1 3 3 3 3 4 5 5 5 6 7 7 8 7 6 7 7 8 8 8 8 8 8 7 7
-11 -10 -11 -10 -10 -11 -9 -9 -9 -8 -8 -8 -8 -8 -8 -6 -4 -3 -3 -3 -1 1 1 0 0 1 3 4 5 4 6 7 7 7 7 7 8 8 7 8 7 7 7 6 6
Height
3156 3159 3161 3162 3164 3166 3168 3169 3171 3172 3172 3172 3173 3175 3175 3174 3172 3172 3172 3172 3171 3171 3172 3172 3173 3173 3174 3175 3176 3178 3180 3180 3180 3180 3181 3180 3179 3180 3182 3182 3183 3183 3183 3184 3184
3151 3154 3157 3159 3160 3162 3164 3167 3167 3170 3171 3171 3172 3172 3174 3174 3174 3173 3174 3172 3171 3171 3172 3172 3173 3174 3174 3175 3176 3176 3178 3179 3179 3179 3179 3179 3179 3179 3180 3180 3181 3181 3182 3183 3183
3146 3148 3152 3154 3156 3158 3159 3161 3164 3166 3169 3170 3171 3172 3172 3174 3175 3173 3173 3173 3172 3171 3171 3172 3173 3173 3174 3174 3175 3175 3176 3177 3178 3178 3178 3178 3178 3178 3178 3179 3179 3180 3180 3181 3181
3141 3143 3146 3149 3151 3153 3155 3157 3158 3161 3164 3167 3169 3170 3171 3172 3175 3172 3173 3173 3173 3172 3172 3171 3172 3172 3173 3173 3173 3174 3174 3174 3175 3176 3176 3176 3176 3175 3176 3178 3177 3177 3177 3177 3178
3137 3139 3142 3143 3146 3148 3151 3153 3154 3156 3159 3162 3165 3167 3169 3170 3172 3171 3171 3172 3173 3172 3172 3171 3171 3170 3171 3171 3171 3171 3172 3171 3171 3171 3172 3172 3173 3172 3172 3174 3174 3174 3175 3175 3175
3132 3135 3137 3139 3141 3143 3145 3148 3150 3151 3153 3156 3159 3163 3165 3168 3169 3169 3169 3169 3170 3170 3171 3171 3170 3170 3169 3169 3169 3168 3168 3168 3167 3167 3166 3166 3168 3166 3170 3170 3169 3169 3170 3171 3172
3126 3129 3132 3134 3136 3139 3140 3143 3145 3146 3148 3150 3153 3156 3159 3165 3164 3166 3167 3168 3167 3168 3168 3169 3169 3169 3168 3167 3166 3166 3164 3165 3163 3161 3161 3160 3161 3160 3165 3164 3164 3164 3164 3165 3167
3118 3122 3125 3128 3130 3133 3136 3139 3140 3141 3143 3144 3147 3149 3151 3158 3160 3163 3164 3165 3165 3165 3166 3165 3166 3167 3166 3166 3164 3163 3162 3161 3161 3160 3158 3158 3156 3158 3158 3158 3159 3159 3157 3158 3159
3109 3114 3118 3121 3124 3127 3131 3135 3135 3136 3138 3139 3141 3144 3146 3151 3155 3157 3159 3160 3161 3162 3162 3162 3162 3162 3165 3164 3163 3160 3160 3160 3158 3157 3158 3157 3153 3156 3156 3154 3153 3154 3152 3151 3151
3100 3104 3108 3112 3117 3119 3125 3129 3128 3131 3132 3134 3136 3142 3143 3146 3147 3151 3153 3156 3156 3158 3158 3158 3158 3159 3159 3162 3162 3159 3158 3158 3157 3156 3153 3152 3151 3151 3151 3149 3148 3148 3148 3146 3148
3092 3095 3099 3103 3108 3112 3118 3122 3124 3125 3124 3129 3131 3132 3137 3139 3141 3146 3148 3149 3150 3152 3154 3153 3155 3152 3156 3159 3159 3157 3155 3154 3154 3154 3148 3147 3145 3145 3144 3141 3140 3140 3142 3143 3143
3083 3087 3090 3094 3099 3103 3108 3112 3113 3116 3115 3118 3122 3123 3129 3133 3134 3138 3143 3144 3144 3146 3148 3151 3146 3151 3153 3154 3154 3154 3152 3151 3151 3151 3149 3143 3141 3141 3138 3137 3136 3136 3136 3138 3139
3076 3079 3082 3085 3089 3094 3098 3102 3103 3105 3108 3107 3113 3114 3123 3126 3126 3132 3137 3137 3139 3141 3142 3142 3144 3147 3146 3148 3150 3150 3149 3149 3148 3147 3146 3143 3139 3139 3137 3135 3134 3134 3133 3133 3135
3071 3072 3076 3078 3084 3084 3087 3090 3096 3097 3102 3099 3102 3105 3112 3118 3115 3126 3127 3133 3132 3135 3138 3137 3140 3141 3142 3144 3146 3145 3146 3145 3145 3144 3143 3142 3139 3136 3137 3136 3135 3134 3133 3132 3132
3066 3067 3069 3072 3074 3079 3082 3082 3089 3095 3093 3094 3093 3095 3099 3104 3112 3112 3124 3123 3123 3127 3131 3129 3132 3135 3137 3138 3142 3142 3141 3141 3141 3141 3140 3138 3141 3133 3134 3134 3134 3132 3131 3130 3129
3059 3059 3063 3067 3070 3073 3076 3080 3083 3094 3084 3086 3085 3089 3090 3092 3099 3105 3110 3116 3120 3123 3123 3124 3128 3129 3132 3133 3136 3138 3138 3138 3138 3138 3137 3131 3133 3129 3128 3130 3130 3129 3128 3127 3126
3053 3054 3057 3061 3065 3069 3073 3079 3083 3081 3080 3078 3081 3082 3085 3087 3090 3095 3094 3100 3106 3113 3114 3115 3117 3120 3123 3128 3131 3133 3134 3137 3136 3135 3127 3126 3127 3122 3124 3124 3126 3125 3125 3123 3122
3047 3047 3050 3056 3059 3063 3068 3076 3074 3065 3067 3069 3073 3075 3073 3080 3081 3090 3092 3090 3096 3099 3104 3108 3109 3108 3112 3114 3120 3122 3127 3128 3127 3126 3122 3122 3120 3115 3118 3120 3121 3122 3120 3119 3119
3038 3040 3042 3048 3053 3058 3064 3066 3060 3057 3058 3063 3067 3068 3069 3072 3075 3081 3084 3084 3086 3088 3094 3098 3097 3099 3102 3108 3114 3114 3117 3116 3121 3121 3121 3115 3113 3112 3112 3113 3115 3116 3116 3116 3115
3029 3030 3036 3042 3045 3051 3057 3053 3049 3052 3052 3057 3057 3061 3061 3061 3067 3069 3075 3078 3081 3084 3087 3089 3092 3092 3097 3101 3105 3105 3108 3111 3115 3114 3113 3105 3105 3104 3105 3107 3109 3111 3111 3112 3112
3020 3021 3026 3034 3037 3041 3041 3041 3042 3045 3050 3054 3054 3053 3055 3058 3057 3059 3061 3067 3074 3075 3078 3083 3086 3086 3087 3086 3090 3096 3097 3100 3100 3101 3099 3098 3093 3095 3097 3101 3103 3104 3104 3104 3105
3013 3014 3018 3022 3029 3027 3027 3033 3038 3038 3042 3044 3047 3048 3050 3053 3053 3054 3054 3054 3063 3066 3067 3071 3075 3076 3077 3080 3082 3083 3083 3086 3090 3093 3092 3091 3083 3090 3091 3094 3098 3099 3099 3098 3099
3005 3008 3012 3017 3014 3015 3019 3023 3029 3031 3033 3035 3037 3044 3048 3048 3050 3047 3048 3049 3053 3057 3058 3062 3064 3069 3072 3077 3074 3073 3077 3079 3082 3084 3083 3085 3074 3084 3088 3091 3093 3093 3093 3093 3092
3001 3001 3002 3004 3006 3008 3012 3014 3018 3020 3024 3027 3027 3035 3040 3039 3043 3037 3041 3043 3046 3048 3053 3053 3052 3055 3055 3056 3065 3067 3066 3070 3073 3077 3070 3070 3071 3076 3080 3085 3087 3087 3088 3088 3086
2989 2986 2991 2990 2991 3000 3006 3008 3009 3010 3012 3017 3016 3020 3031 3031 3032 3028 3031 3035 3038 3040 3042 3045 3045 3051 3050 3054 3058 3058 3060 3064 3066 3063 3066 3064 3066 3070 3075 3079 3080 3079 3080 3079 3078
2979 2979 2981 2982 2985 2991 2994 2993 2999 3003 3005 3005 3008 3014 3018 3021 3023 3023 3029 3034 3032 3033 3035 3038 3041 3047 3043 3045 3049 3050 3053 3054 3055 3058 3059 3061 3061 3066 3070 3070 3071 3072 3072 3070 3069
2969 2969 2971 2970 2975 2978 2978 2980 2985 2992 2995 2997 3002 3003 3005 3012 3021 3019 3020 3022 3025 3026 3025 3031 3033 3042 3035 3039 3043 3044 3038 3044 3046 3047 3052 3053 3055 3059 3062 3062 3064 3064 3064 3062 3062
Wind_Speed
21 21 20 19 18 16 16 14 13 11 8 6 3 2 4 3 1 1 3 2 2 1 1 3 6 9 11 12 11 12 7 6 3 3 4 5 4 6 10 8 7 9 8 5 2
23 23 23 22 21 20 18 18 16 15 13 10 8 4 3 4 1 1 1 1 2 2 2 4 5 8 10 11 12 11 10 8 6 3 4 4 3 2 5 9 9 12 10 9 6
25 25 25 25 24 23 22 20 20 18 16 15 11 8 5 4 4 2 1 1 1 3 4 4 4 5 7 10 10 14 13 12 9 9 8 6 3 2 5 10 9 11 10 10 11
26 26 26 27 27 26 25 24 22 22 19 18 16 12 9 7 6 7 4 4 2 3 5 6 6 6 7 9 11 14 14 14 15 15 15 13 12 10 9 7 7 6 9 13 12
28 27 26 27 28 28 28 27 25 24 23 21 19 17 14 11 11 9 10 7 7 6 6 7 7 6 6 7 10 15 14 17 19 19 21 21 19 18 18 13 13 12 12 13 14
28 26 25 26 28 30 30 30 29 27 27 25 23 21 18 15 14 15 12 12 10 10 10 8 9 7 8 7 8 12 14 16 18 19 23 25 25 27 22 20 21 20 19 18 19
35 33 32 31 29 29 30 30 30 30 29 29 27 26 24 16 16 16 14 14 11 11 12 13 12 11 11 10 10 11 15 17 16 16 13 18 24 26 23 28 29 29 29 28 25
47 46 42 40 38 35 32 29 30 32 31 31 30 30 30 23 20 20 16 16 15 14 14 15 16 16 16 16 16 15 15 8 6 7 6 11 17 14 13 16 23 28 32 36 34
46 44 43 39 41 40 37 34 31 31 34 34 32 32 33 28 24 24 22 20 17 17 17 18 20 20 21 17 17 11 10 10 7 6 10 11 24 14 13 18 21 20 23 24 20
47 46 43 42 42 42 40 37 36 35 35 35 36 31 30 14 17 26 26 25 23 23 22 23 23 24 24 18 11 9 12 17 12 8 16 20 24 21 20 25 24 23 20 19 17
42 45 47 43 43 40 39 37 38 38 39 36 34 31 30 19 24 25 20 27 26 26 27 27 24 29 21 16 14 15 17 20 13 10 19 20 25 21 19 24 26 26 23 17 17
33 36 41 43 42 42 40 33 40 38 40 39 37 41 39 26 32 25 23 24 25 28 27 28 30 25 23 22 20 20 22 23 18 6 18 22 24 13 12 12 12 13 19 19 19
28 29 31 33 37 41 41 36 35 41 42 49 45 44 39 38 39 30 29 29 29 28 27 31 27 10 14 25 19 19 20 20 22 20 18 20 19 4 6 7 6 7 8 13 18
25 26 25 25 28 32 37 42 33 35 35 48 50 53 47 40 46 39 29 29 31 30 27 24 25 25 26 15 19 25 22 21 22 13 6 7 9 15 5 4 0 1 1 2 1
24 25 22 22 22 24 29 33 32 34 6 17 19 38 45 44 46 47 39 34 34 33 30 31 28 21 24 21 23 23 15 14 17 14 13 18 7 9 6 5 5 6 6 5 4
23 24 22 20 20 19 16 12 25 18 8 10 20 17 30 43 49 44 40 45 37 33 33 35 27 22 21 20 17 14 13 10 10 9 5 24 17 15 14 12 6 2 2 2 1
27 27 25 20 18 17 14 16 15 11 19 30 42 25 26 28 37 43 51 49 47 35 42 42 39 37 34 24 15 19 15 3 3 4 8 9 15 18 13 12 5 3 4 2 4
33 32 30 24 20 18 17 24 10 20 38 31 28 33 35 29 31 39 41 45 52 46 37 35 27 45 43 43 35 33 31 13 6 5 2 8 10 17 16 20 7 5 2 1 3
37 36 35 27 24 20 19 28 32 38 27 39 38 32 31 33 32 29 44 49 53 55 45 33 30 34 38 33 33 32 27 35 23 16 6 10 14 17 18 23 10 11 8 6 5
37 39 38 30 27 22 24 33 41 49 26 25 24 22 34 39 40 37 38 46 50 50 53 43 27 37 41 29 26 32 17 11 18 7 10 7 17 20 27 23 23 19 15 11 9
36 38 36 31 29 29 36 41 40 42 50 28 20 29 30 13 38 41 36 44 37 48 49 51 38 26 28 35 40 33 33 18 16 20 5 5 11 25 33 30 18 20 16 13 17
31 34 30 31 29 37 43 43 43 42 40 52 41 24 37 39 22 37 43 43 33 41 44 49 37 38 38 28 34 39 42 42 19 12 21 21 23 12 9 22 15 19 16 16 21
33 33 30 26 31 36 40 40 40 44 43 43 37 43 32 27 31 32 33 38 40 37 37 44 38 28 23 33 29 25 34 36 38 24 26 15 21 20 23 16 21 18 21 21 24
34 33 34 37 37 32 33 35 35 44 46 48 50 34 56 35 24 26 27 34 39 41 37 38 39 38 40 45 36 35 40 38 38 23 39 35 38 23 19 24 24 21 24 22 25
38 46 42 30 41 46 38 29 31 35 40 42 44 45 48 54 45 32 51 38 27 31 34 41 37 41 47 42 33 22 31 35 40 47 31 42 37 32 25 25 26 22 21 24 21
41 44 48 49 46 37 30 45 50 45 39 35 40 50 39 58 54 34 12 33 48 31 16 18 26 35 39 44 41 36 33 33 35 37 41 37 37 35 28 25 18 22 21 19 25
42 44 51 52 51 43 51 48 46 43 49 53 47 35 35 45 62 40 49 40 16 30 29 24 21 34 45 31 26 24 40 35 29 25 27 36 37 30 23 23 25 20 21 25 25
Wind_Direction
235 239 239 241 245 246 249 249 250 245 234 237 238 303 341 347 13 167 214 211 187 199 209 193 177 183 187 187 196 190 180 165 156 134 76 59 57 188 217 238 240 235 247 291 345
233 235 238 241 242 245 248 254 253 254 250 242 244 242 292 321 242 86 143 223 202 194 187 187 178 183 193 203 211 208 203 208 216 264 181 21 30 61 218 244 253 262 250 256 255
234 234 237 238 241 244 245 249 255 255 257 257 252 251 241 271 235 223 240 303 214 216 203 203 195 188 207 216 231 232 235 239 248 264 271 268 292 322 240 241 260 260 252 268 261
237 237 237 239 240 241 244 247 250 253 255 256 258 253 245 244 235 232 245 258 250 237 233 236 241 236 240 236 237 254 252 257 252 261 264 269 260 276 267 263 275 249 241 236 231
245 243 242 241 241 242 243 246 249 251 253 254 255 254 253 242 245 244 240 252 264 257 241 242 249 258 255 259 266 270 272 268 270 265 263 266 261 269 252 265 278 263 260 260 248
246 247 249 252 250 245 244 246 248 250 251 252 254 255 252 246 249 249 246 249 250 263 250 239 246 255 264 267 276 283 284 288 281 275 268 264 263 263 257 265 268 272 265 255 252
247 249 253 258 260 261 252 247 249 251 250 253 253 253 252 245 246 249 247 248 251 255 252 244 244 247 263 278 283 286 290 293 290 280 265 257 257 264 268 263 264 266 271 270 260
254 255 256 259 257 257 260 260 256 253 254 251 253 254 252 246 246 250 248 249 251 253 253 255 253 254 259 267 279 292 295 297 306 271 245 245 268 254 245 248 260 267 266 266 263
248 251 255 256 257 254 254 259 264 264 259 254 252 253 257 252 246 246 245 243 246 243 249 253 253 254 261 268 278 291 276 282 308 290 276 285 283 279 252 263 265 259 275 275 264
251 250 250 251 255 259 257 259 260 262 264 261 254 255 246 244 244 241 243 241 241 245 251 252 248 255 256 260 264 279 277 282 294 298 286 289 292 284 275 273 269 260 274 264 256
252 252 252 250 250 251 256 257 260 261 259 259 255 249 251 240 239 241 247 239 239 240 244 249 244 252 262 271 267 272 282 285 298 312 296 301 305 298 280 263 267 261 259 259 251
253 253 251 250 247 250 251 256 255 259 261 257 254 252 249 246 241 234 234 232 234 238 239 238 249 261 264 255 256 267 276 280 296 293 305 304 311 323 282 270 276 275 251 253 247
254 255 256 255 252 250 249 251 254 256 260 257 254 255 249 248 245 236 234 239 237 239 241 243 250 246 274 247 256 262 271 283 291 295 297 306 315 16 327 325 332 315 292 276 271
256 256 256 259 257 251 247 246 250 254 255 261 263 259 254 250 249 237 228 228 231 234 234 247 249 252 256 241 247 279 284 283 279 288 274 286 297 313 264 291 96 62 43 33 298
255 257 258 257 259 256 252 249 236 249 247 253 263 253 253 248 253 245 230 221 221 224 223 240 252 249 246 257 260 270 279 274 273 266 267 264 239 275 253 215 245 257 262 288 291
254 256 257 256 258 259 252 241 245 235 242 235 245 254 247 248 245 241 238 224 228 234 241 246 243 247 248 252 249 254 243 259 254 256 239 260 213 265 242 218 258 260 33 2 334
265 264 262 259 252 247 225 216 218 214 232 244 245 248 249 250 245 233 232 224 220 217 232 238 237 240 243 243 234 231 231 262 244 217 235 255 205 232 209 208 251 216 353 225 226
266 266 266 264 259 238 217 211 224 237 226 240 249 242 240 238 244 238 228 221 227 222 233 224 237 234 239 241 240 236 231 212 223 209 243 216 222 236 230 216 221 221 322 214 251
263 263 263 264 258 246 223 207 219 233 241 236 243 243 241 233 235 238 235 231 230 223 217 224 232 239 244 248 243 239 220 250 237 252 261 224 243 247 226 199 213 223 244 277 290
263 262 260 257 256 245 230 226 231 230 231 240 236 233 244 245 233 226 234 238 236 232 234 230 241 245 248 235 230 226 243 182 200 215 235 230 236 231 221 220 241 223 231 266 297
263 262 259 257 251 244 234 234 235 237 240 242 245 232 237 264 235 226 225 236 240 240 233 229 229 241 235 228 231 214 219 217 212 223 213 250 242 256 245 244 208 210 229 263 301
257 258 260 258 246 245 245 241 243 243 241 244 245 247 239 238 278 232 229 232 235 238 227 232 232 235 233 236 234 237 239 220 210 220 217 244 252 260 211 213 227 218 241 280 302
251 252 250 240 241 242 248 249 247 247 246 251 248 243 240 253 257 257 241 234 236 236 235 232 220 230 236 236 236 220 228 236 235 235 230 217 253 247 230 216 218 245 260 284 295
246 245 245 243 240 243 249 254 249 248 246 246 252 245 244 252 230 248 248 240 238 236 240 233 221 220 226 232 232 229 233 230 232 221 238 234 244 243 242 224 229 248 261 272 283
239 243 245 241 246 240 239 243 249 249 246 244 251 251 245 254 254 237 233 232 220 232 235 229 222 231 237 237 235 234 234 238 232 242 228 249 250 245 229 230 264 261 270 284 290
238 239 244 248 251 244 241 246 247 247 248 250 249 246 243 238 249 243 264 252 249 251 244 246 226 236 239 243 241 246 253 257 251 242 239 246 259 267 262 240 254 281 283 289 304
232 240 242 248 246 239 248 252 250 253 248 248 251 254 240 240 240 263 252 258 266 254 253 248 217 232 247 251 241 237 242 235 243 250 255 246 257 264 247 254 278 274 283 300 311